Wind_Speed
28 28 29 29 30 29 29 29 30 32 34 36 39 42 45 49 52 56 59 61 64 66 68 71 71 69 67 67 66 66 69 65 61 62 61 55 52 52 53 52 57 58 51 51 43
31 31 31 32 32 33 33 33 34 34 35 37 40 45 49 53 56 59 61 64 67 70 72 75 78 79 75 72 72 70 73 68 66 70 69 61 55 57 55 53 56 60 55 60 48
33 34 34 34 34 34 34 35 35 38 39 42 47 50 54 58 58 62 63 64 68 71 74 78 81 79 73 71 72 74 75 72 75 77 73 67 61 60 58 57 56 55 59 61 57
34 35 36 35 36 36 36 38 40 40 45 48 52 56 59 60 60 61 62 63 63 62 48 33 27 32 38 46 61 73 73 76 81 82 81 73 66 63 62 59 58 56 59 68 63
35 36 36 36 37 37 38 40 42 46 49 53 57 60 60 60 59 57 55 48 32 17 16 22 22 24 24 25 30 54 69 78 85 86 84 77 70 67 63 63 63 57 62 61 64
35 36 36 37 37 38 40 42 46 50 54 57 60 61 62 60 53 46 35 18 15 17 22 25 25 28 28 29 32 37 47 69 80 86 84 81 74 72 67 65 64 60 59 59 61
35 36 39 38 39 40 42 45 50 53 57 61 61 63 62 51 45 32 13 15 18 22 24 26 26 28 28 29 33 36 39 46 67 79 81 82 80 74 66 68 65 64 60 62 61
36 39 40 40 41 41 44 49 54 57 60 62 62 64 53 45 39 15 16 19 21 24 27 28 29 30 30 29 30 27 33 27 34 67 76 83 81 69 67 69 66 66 64 62 62
38 40 41 41 40 43 46 52 54 60 62 63 63 57 43 39 28 16 14 17 21 24 26 28 28 26 26 26 24 21 24 30 29 32 54 78 77 71 72 71 69 69 67 64 62
39 40 42 43 44 46 49 52 53 59 61 62 62 51 34 27 22 21 20 21 22 22 25 27 27 26 25 24 23 19 22 30 30 31 31 63 76 80 73 73 70 67 69 68 62
40 42 44 45 46 47 52 53 58 60 62 60 53 43 27 21 19 22 24 26 27 28 28 30 25 23 24 27 27 27 25 21 22 30 31 37 71 78 76 73 71 66 69 69 62
41 44 45 47 48 49 52 55 56 60 59 58 50 38 25 23 21 23 26 27 28 29 32 27 23 25 31 28 28 26 28 25 24 28 32 29 41 75 78 75 73 67 67 68 64
42 47 47 47 47 50 52 54 56 59 59 55 48 35 25 24 23 26 25 25 27 26 27 25 18 28 28 27 26 25 24 23 27 31 32 33 36 58 81 79 74 68 64 69 66
44 47 48 47 47 50 51 53 57 57 58 53 42 25 24 22 25 26 23 24 25 24 26 24 24 28 25 21 27 28 26 30 35 37 35 32 30 35 78 82 75 69 64 66 65
46 48 50 46 49 49 51 53 55 57 55 47 36 29 27 26 30 26 30 25 25 25 31 26 27 27 23 22 26 29 30 33 33 32 36 41 42 18 57 85 77 71 63 67 65
46 49 47 46 47 49 51 50 54 56 51 40 31 32 29 27 28 28 28 25 26 27 31 30 31 25 25 25 26 30 32 33 30 30 35 30 40 29 33 83 79 70 64 66 64
48 49 45 46 46 49 49 49 54 52 51 43 30 29 26 27 24 26 25 29 33 37 35 34 27 28 29 29 29 33 31 28 30 32 29 23 31 33 22 75 79 70 65 66 65
50 46 43 44 46 49 49 50 52 53 49 42 32 28 26 24 17 21 26 28 34 37 38 32 25 29 29 28 32 29 27 27 33 33 27 24 37 29 20 60 78 73 68 69 68
46 43 43 44 46 47 49 51 51 51 48 45 33 25 25 28 29 29 29 31 30 29 26 29 34 34 33 36 27 23 24 22 35 37 34 29 35 38 38 50 76 81 77 73 72
43 41 42 43 46 47 48 49 51 48 45 46 42 30 30 29 31 37 33 30 27 28 28 32 37 32 26 19 17 22 21 25 29 33 32 24 27 32 37 44 80 82 77 77 72
42 41 42 44 45 45 46 49 52 50 44 44 45 32 31 33 31 33 28 27 30 33 32 36 35 34 22 15 21 21 17 21 27 26 28 19 22 19 35 51 83 80 74 76 71
42 41 41 42 43 43 45 48 51 51 44 42 45 39 28 34 29 28 26 30 34 32 35 31 35 27 14 17 16 15 17 16 18 17 23 29 11 6 22 64 83 79 71 69 69
41 39 40 43 44 43 45 48 49 52 48 43 45 45 25 26 31 31 29 31 35 34 31 28 30 23 18 21 20 12 14 13 13 22 21 27 12 27 42 56 82 76 69 70 71
43 43 42 42 44 44 44 47 49 50 48 43 43 45 27 22 28 29 29 30 35 25 26 25 21 16 17 16 22 19 15 10 13 20 23 18 2 40 55 61 73 73 75 72 69
42 41 41 42 44 44 45 47 50 50 49 46 42 45 36 25 27 24 26 28 27 23 23 20 17 12 12 19 16 9 12 8 16 23 14 11 21 47 54 79 73 76 76 69 63
39 40 37 40 43 43 44 45 49 46 50 46 44 42 36 28 35 29 28 29 27 19 19 21 11 14 17 17 19 14 12 13 9 15 18 19 46 42 50 75 65 75 69 67 62
38 38 37 40 43 42 44 45 45 48 45 45 45 46 38 24 30 30 27 28 26 19 18 18 10 10 13 13 12 13 9 19 18 17 16 40 40 45 53 72 67 68 68 66 60
Wind_Direction
344 342 340 339 337 331 324 323 318 313 311 308 307 306 304 300 297 294 291 289 287 284 282 281 278 273 267 263 257 246 247 249 247 249 249 241 235 235 234 227 223 221 224 232 224
344 341 339 337 334 331 328 325 322 321 317 313 310 307 305 302 301 298 295 293 289 285 281 276 272 270 267 260 254 245 242 245 241 241 242 240 234 232 231 230 225 222 214 230 227
340 338 338 336 335 332 329 328 325 322 319 315 312 310 308 306 305 302 299 294 289 283 276 271 269 269 266 259 252 245 242 236 237 235 237 234 232 229 229 230 227 223 218 220 227
336 336 337 336 334 332 329 329 328 326 321 318 317 315 314 313 309 306 301 294 286 283 286 290 291 283 273 261 248 244 240 234 235 234 232 230 228 227 227 225 227 222 222 214 220
334 335 338 336 334 331 331 331 328 327 325 322 321 320 319 317 313 309 301 295 292 290 293 298 295 297 287 281 267 245 238 234 234 234 231 230 226 224 224 222 226 224 224 220 215
333 336 337 336 334 333 333 330 329 330 327 326 326 324 323 321 317 307 299 292 288 290 294 293 293 290 283 284 280 273 248 235 233 233 232 230 226 221 219 222 221 222 222 222 217
335 336 338 338 337 335 333 331 332 331 331 330 329 327 327 322 315 303 284 283 287 292 285 280 279 287 285 288 293 277 248 246 233 233 232 232 228 220 220 222 218 221 220 219 218
339 340 341 339 338 336 336 334 333 333 335 332 332 329 327 321 314 278 273 284 289 295 293 290 283 282 283 282 295 279 244 247 249 232 231 231 222 218 222 222 216 218 220 218 217
341 341 342 339 337 337 337 335 335 335 336 334 333 330 325 322 310 276 279 281 285 297 297 294 288 288 285 281 286 281 247 254 252 256 237 229 219 220 222 218 215 216 218 218 215
341 342 341 340 338 337 336 334 336 336 337 334 334 328 321 323 313 285 298 294 289 297 302 299 296 295 286 269 266 266 261 252 253 254 259 231 219 223 220 217 215 214 215 219 213
341 340 339 339 338 337 336 335 336 338 338 337 335 327 312 314 320 294 304 306 307 305 301 300 297 294 282 275 264 260 263 265 266 258 250 240 224 222 220 217 214 212 214 218 213
339 340 339 337 336 337 337 337 338 340 340 340 337 327 306 307 309 312 302 303 300 304 305 308 307 282 273 276 275 266 256 258 261 260 258 244 241 219 221 214 212 209 213 215 214
339 339 338 336 336 338 338 339 339 340 342 343 341 331 317 309 309 311 303 299 298 296 297 311 296 288 286 280 278 271 263 261 261 257 249 251 248 226 216 215 213 207 209 213 213
338 338 336 336 337 339 340 340 339 342 344 345 343 339 325 322 316 315 318 302 301 301 302 316 289 298 297 286 269 266 266 264 268 256 242 250 257 236 212 216 210 205 206 210 211
338 338 337 337 338 340 342 341 340 343 347 348 343 340 327 323 318 323 319 305 305 310 306 316 308 298 298 276 263 269 261 271 274 264 249 243 251 224 220 213 207 205 202 207 208
338 339 339 339 340 341 343 341 342 343 350 346 342 341 336 330 317 318 312 298 299 307 306 310 303 299 291 288 271 270 275 281 269 262 256 247 246 222 219 209 207 203 200 204 205
338 338 339 340 341 342 343 343 343 347 347 348 347 347 344 334 320 315 307 307 309 309 308 310 302 298 294 288 280 280 282 277 266 257 268 254 249 239 222 204 203 201 199 202 203
338 338 340 341 341 343 344 343 345 345 348 350 342 347 346 339 343 325 317 314 309 305 307 311 308 299 286 290 280 276 274 260 254 260 265 264 253 237 234 206 198 194 194 200 199
336 337 339 340 341 343 344 343 345 345 346 349 346 336 341 341 333 325 320 318 317 308 310 317 316 304 291 288 285 270 263 270 257 255 252 245 254 240 239 203 193 190 192 195 195
337 338 339 339 341 343 343 342 342 347 349 348 347 335 327 329 333 328 327 329 333 325 314 316 315 315 306 286 278 268 271 258 257 260 263 255 246 245 226 215 189 188 190 193 192
339 338 339 342 342 343 343 342 344 348 351 348 345 332 328 326 333 328 327 334 333 324 321 317 312 320 310 287 287 292 262 266 261 266 253 245 248 247 237 197 184 184 189 193 190
337 337 340 341 341 344 344 345 345 347 349 349 345 340 326 329 330 333 337 335 334 323 323 320 313 322 332 340 320 303 290 278 252 245 247 253 149 110 190 180 177 183 186 191 191
334 337 336 339 341 340 342 344 343 344 346 350 346 343 336 334 326 336 336 336 333 333 329 332 333 324 328 336 319 328 297 276 248 242 239 238 244 170 155 169 176 180 181 187 191
333 333 333 337 339 341 339 340 343 344 344 348 348 346 333 348 348 333 332 337 336 335 327 332 334 328 326 314 296 303 322 309 247 230 233 231 75 167 163 171 176 176 177 186 188
332 333 335 337 340 341 340 339 340 341 343 345 350 347 343 340 355 340 338 342 339 337 339 336 340 3 358 12 9 328 283 261 237 220 239 296 158 164 164 173 172 175 180 184 184
332 333 335 337 340 339 340 339 340 345 344 344 346 349 345 347 353 349 346 344 345 351 352 353 5 16 17 358 347 325 274 202 232 303 335 116 150 149 163 175 168 178 179 183 184
323 329 331 335 337 336 338 339 342 343 344 343 345 347 344 346 357 347 343 345 344 357 355 2 15 30 10 5 346 347 324 325 308 313 322 150 143 155 170 176 171 173 179 183 184
Height
5857 5854 5850 5847 5843 5840 5836 5832 5829 5826 5823 5819 5815 5811 5807 5803 5798 5794 5789 5785 5781 5777 5773 5770 5768 5768 5768 5771 5775 5780 5780 5788 5799 5801 5804 5812 5819 5820 5823 5831 5835 5843 5853 5851 5861
5854 5850 5847 5843 5838 5834 5830 5826 5822 5819 5815 5811 5807 5802 5796 5790 5785 5778 5772 5766 5761 5756 5751 5748 5746 5745 5745 5747 5750 5756 5761 5775 5782 5780 5785 5797 5806 5808 5813 5819 5824 5830 5844 5841 5853
5850 5846 5842 5838 5833 5828 5824 5820 5816 5812 5807 5802 5796 5791 5784 5777 5771 5763 5755 5747 5739 5731 5726 5722 5719 5717 5720 5724 5727 5732 5742 5757 5755 5759 5769 5779 5788 5795 5802 5808 5814 5823 5831 5835 5842
5845 5841 5836 5831 5826 5821 5817 5813 5808 5803 5798 5791 5784 5776 5768 5760 5753 5742 5734 5725 5716 5708 5704 5701 5701 5700 5699 5702 5704 5708 5722 5733 5732 5738 5746 5761 5771 5782 5788 5798 5799 5809 5814 5819 5831
5840 5836 5831 5825 5820 5815 5810 5805 5799 5793 5786 5779 5771 5761 5752 5743 5734 5722 5712 5705 5700 5698 5697 5696 5695 5694 5692 5692 5690 5691 5700 5704 5708 5717 5728 5743 5755 5767 5774 5783 5789 5797 5802 5815 5824
5835 5830 5825 5819 5814 5808 5803 5796 5790 5784 5776 5767 5757 5746 5737 5727 5716 5707 5700 5697 5695 5693 5692 5690 5688 5686 5684 5684 5682 5679 5680 5682 5689 5698 5711 5723 5736 5744 5762 5768 5778 5785 5794 5804 5813
5830 5825 5819 5813 5807 5801 5795 5788 5781 5774 5765 5754 5744 5731 5722 5714 5703 5697 5694 5692 5690 5688 5686 5684 5682 5679 5677 5674 5672 5668 5667 5668 5673 5682 5693 5701 5711 5735 5752 5753 5766 5774 5781 5790 5798
5825 5820 5814 5808 5801 5795 5788 5780 5772 5763 5754 5742 5731 5719 5710 5701 5693 5690 5689 5686 5684 5682 5679 5676 5674 5672 5669 5667 5663 5657 5658 5659 5662 5663 5675 5681 5707 5736 5731 5736 5752 5759 5766 5777 5788
5821 5815 5809 5802 5795 5788 5781 5772 5763 5753 5744 5730 5719 5707 5701 5693 5686 5684 5684 5682 5679 5675 5671 5668 5665 5663 5662 5659 5657 5653 5654 5655 5656 5655 5658 5665 5699 5712 5706 5723 5734 5745 5754 5765 5778
5816 5809 5803 5796 5789 5781 5774 5766 5757 5746 5734 5721 5710 5700 5694 5687 5682 5677 5678 5675 5673 5670 5665 5662 5658 5656 5654 5650 5651 5650 5649 5649 5650 5650 5651 5657 5682 5677 5695 5706 5719 5732 5743 5753 5769
5811 5804 5797 5789 5781 5773 5766 5757 5748 5739 5725 5715 5702 5691 5685 5683 5678 5674 5672 5668 5665 5662 5659 5655 5653 5648 5646 5644 5643 5643 5643 5643 5644 5644 5643 5647 5652 5660 5675 5691 5709 5723 5734 5744 5758
5805 5798 5791 5783 5774 5766 5758 5748 5739 5730 5720 5707 5695 5685 5681 5678 5676 5672 5668 5664 5660 5656 5651 5650 5645 5642 5637 5637 5635 5635 5636 5637 5638 5636 5635 5640 5636 5650 5659 5682 5695 5711 5722 5734 5747
5800 5792 5785 5776 5768 5760 5751 5742 5731 5722 5711 5699 5688 5679 5676 5674 5670 5666 5663 5659 5655 5652 5647 5644 5641 5633 5632 5631 5628 5628 5628 5630 5629 5628 5629 5629 5628 5637 5655 5667 5682 5700 5713 5721 5737
5795 5787 5778 5770 5763 5753 5746 5736 5725 5714 5703 5692 5682 5677 5671 5667 5664 5660 5655 5652 5649 5645 5640 5637 5632 5628 5626 5625 5621 5620 5621 5620 5620 5620 5622 5621 5622 5627 5643 5653 5671 5691 5702 5716 5730
5789 5781 5772 5763 5756 5747 5739 5730 5719 5708 5699 5688 5678 5671 5666 5663 5655 5654 5648 5644 5641 5639 5632 5633 5625 5620 5619 5617 5615 5613 5613 5611 5610 5609 5609 5613 5614 5626 5627 5642 5663 5680 5697 5709 5722
5784 5775 5766 5759 5750 5742 5733 5725 5714 5703 5692 5684 5675 5668 5663 5656 5650 5646 5641 5637 5635 5633 5627 5624 5617 5614 5611 5609 5607 5604 5603 5601 5600 5600 5598 5606 5604 5611 5616 5631 5658 5675 5690 5703 5716
5778 5770 5762 5754 5746 5737 5729 5720 5710 5698 5689 5680 5672 5665 5658 5652 5648 5642 5637 5633 5628 5623 5619 5615 5610 5605 5603 5600 5598 5595 5594 5592 5591 5589 5593 5596 5595 5603 5611 5624 5644 5667 5683 5696 5709
5772 5764 5757 5749 5741 5732 5724 5716 5706 5695 5685 5676 5668 5661 5655 5648 5647 5641 5635 5631 5624 5617 5610 5606 5603 5599 5595 5591 5588 5584 5585 5584 5581 5581 5585 5586 5583 5598 5606 5613 5633 5651 5671 5683 5697
5766 5758 5751 5743 5736 5728 5720 5711 5702 5693 5682 5673 5666 5658 5653 5647 5640 5635 5630 5625 5617 5611 5606 5599 5595 5589 5584 5581 5578 5577 5575 5577 5571 5573 5572 5578 5578 5584 5592 5595 5609 5629 5649 5664 5685
5761 5753 5747 5739 5731 5724 5716 5707 5699 5689 5679 5667 5660 5654 5647 5642 5638 5630 5624 5618 5611 5605 5599 5594 5585 5582 5574 5571 5570 5568 5567 5566 5565 5565 5563 5567 5570 5573 5577 5583 5601 5623 5641 5659 5679
5755 5748 5742 5735 5727 5720 5711 5702 5692 5683 5675 5666 5656 5649 5643 5636 5633 5626 5620 5614 5606 5599 5592 5585 5578 5575 5568 5565 5563 5560 5559 5558 5556 5557 5556 5559 5562 5568 5568 5577 5598 5622 5642 5656 5674
5751 5744 5736 5730 5724 5715 5707 5698 5689 5679 5671 5663 5653 5644 5639 5631 5628 5620 5615 5606 5601 5593 5586 5580 5572 5567 5564 5559 5556 5553 5551 5549 5548 5551 5550 5548 5545 5552 5561 5576 5601 5621 5639 5656 5672
5747 5740 5734 5726 5720 5712 5703 5695 5686 5676 5666 5659 5649 5640 5634 5628 5618 5613 5609 5604 5596 5587 5580 5574 5568 5562 5558 5556 5551 5547 5547 5544 5544 5543 5545 5542 5538 5543 5552 5568 5597 5617 5634 5649 5661
5742 5734 5729 5722 5714 5707 5700 5692 5682 5670 5663 5656 5647 5637 5629 5625 5619 5610 5605 5599 5591 5584 5578 5571 5566 5561 5559 5555 5550 5548 5544 5542 5541 5540 5540 5538 5536 5543 5554 5568 5589 5612 5626 5640 5663
5736 5729 5721 5716 5709 5702 5695 5687 5678 5670 5659 5651 5645 5633 5623 5617 5615 5607 5603 5598 5588 5582 5576 5570 5564 5559 5556 5552 5549 5547 5545 5543 5541 5538 5536 5536 5538 5546 5556 5568 5588 5607 5622 5646 5665
5731 5724 5719 5712 5705 5697 5690 5682 5674 5664 5655 5647 5639 5631 5622 5615 5607 5601 5598 5593 5586 5580 5575 5570 5565 5560 5558 5554 5552 5549 5545 5544 5543 5539 5537 5538 5546 5556 5565 5576 5589 5609 5634 5651 5667
5726 5721 5712 5706 5699 5692 5685 5677 5669 5661 5652 5641 5634 5626 5618 5612 5606 5600 5595 5590 5583 5580 5575 5571 5565 5563 5561 5557 5555 5553 5549 5545 5541 5539 5540 5544 5553 5563 5577 5592 5602 5621 5639 5655 5671